Temperature
21 20 20 20 20 19 19 19 18 18 18 18 18 18 18 18 17 17 17 17 17 17 17 17 17 17 17 17 17 17 17 17 17 17 17 17 17 17 17 17 17 17 16
21 21 20 20 20 20 19 19 19 18 18 18 18 18 18 17 17 17 17 17 17 17 17 17 17 17 17 17 17 17 17 17 17 17 17 16 16 16 16 16 16 16 16
22 21 21 21 20 20 20 19 19 19 18 18 18 18 18 17 17 17 17 17 17 17 17 17 17 17 17 17 17 17 17 17 17 17 17 16 16 16 16 16 16 16 16
22 22 21 21 21 20 20 20 19 19 19 18 18 18 18 18 18 18 17 17 17 17 17 17 17 17 17 17 17 17 17 17 17 17 16 16 16 16 15 16 16 16 16
22 22 22 22 21 21 21 20 20 19 19 19 18 18 18 18 18 18 17 17 17 17 17 17 17 17 17 17 17 17 17 17 17 17 16 16 16 16 16 15 15 15 15
22 22 22 22 21 21 21 21 20 20 19 19 19 19 18 18 18 18 18 18 18 17 17 17 17 17 17 17 17 17 17 17 17 16 16 16 16 16 16 15 15 15 15
23 23 22 22 22 22 21 21 21 20 20 19 19 19 19 18 18 18 18 18 18 18 18 17 17 17 17 17 17 17 17 16 16 16 16 16 16 16 16 15 15 15 15
23 23 23 23 22 22 22 22 21 21 20 20 19 19 19 19 18 18 18 18 18 18 18 17 17 17 17 17 17 17 17 16 16 16 16 16 16 16 16 15 15 15 14
23 23 24 23 23 23 22 22 22 21 21 20 20 20 19 19 19 18 18 18 18 18 18 18 17 17 17 17 16 16 16 16 16 16 16 16 16 16 15 15 15 15 14
23 23 24 24 23 23 23 22 22 21 21 21 20 20 20 19 19 18 18 18 18 18 18 18 17 17 17 17 16 16 16 16 16 16 16 16 16 16 15 15 15 15 15
23 23 24 23 23 23 23 22 22 22 21 21 20 20 20 19 19 19 19 18 18 18 18 18 17 17 17 17 16 16 16 16 16 16 16 16 16 15 15 15 15 15 14
23 23 23 23 23 23 23 23 22 22 22 21 21 20 20 20 19 19 19 19 18 18 18 18 17 17 17 17 16 16 16 16 16 16 16 16 16 15 15 15 15 15 14
23 23 23 23 23 23 23 22 22 22 22 21 21 20 20 20 20 19 19 19 19 18 18 18 18 17 17 17 16 16 16 16 16 16 15 15 15 15 15 15 14 14 14
22 23 23 23 23 23 22 22 22 22 21 21 21 21 20 20 20 19 19 19 19 18 18 18 18 17 17 17 16 16 16 16 16 15 15 15 15 15 15 14 14 14 14
22 22 23 23 22 22 22 22 22 22 22 22 21 21 20 20 20 19 19 19 19 18 18 18 18 17 17 17 16 16 16 16 16 15 15 15 15 14 14 14 14 14 14
21 22 22 22 22 22 22 22 22 22 22 22 21 21 21 20 20 19 19 19 19 18 18 18 18 17 17 17 16 16 16 16 15 15 15 15 14 14 14 14 14 13 13
21 21 22 22 22 22 22 22 22 22 21 21 21 21 20 20 19 19 19 19 18 18 18 18 17 17 17 16 16 16 15 15 15 15 15 14 14 14 14 14 13 13 13
21 21 22 22 22 21 21 21 21 21 21 21 21 20 20 20 19 19 19 19 18 18 18 17 17 17 17 16 16 15 15 15 15 15 14 14 14 14 14 13 13 13 13
21 21 21 22 21 21 21 21 21 21 20 20 20 20 20 20 19 19 19 19 18 18 17 17 17 16 16 16 15 15 15 15 15 15 14 14 14 14 13 13 13 13 13
20 21 21 21 21 21 21 20 20 20 20 20 19 19 19 19 19 19 19 18 18 18 17 17 17 16 16 16 15 15 15 15 15 14 14 14 13 13 13 13 13 13 12
20 20 20 20 20 20 20 20 19 19 19 19 19 19 19 18 18 18 18 18 17 17 17 16 16 16 16 15 15 15 14 14 14 14 14 13 13 13 13 12 12 12 12
19 19 19 20 19 19 19 19 19 19 18 18 18 18 18 18 18 18 17 17 17 17 17 16 16 16 16 15 15 15 14 14 14 14 13 13 13 12 12 12 12 12 12
19 18 18 18 18 19 19 19 19 18 18 18 18 18 18 17 17 17 17 17 16 16 16 16 16 16 15 15 15 14 14 14 13 13 13 12 12 12 12 12 12 11 11
18 18 18 18 18 18 18 18 18 18 17 17 17 18 17 17 17 17 17 16 16 16 16 16 16 15 15 15 14 14 14 13 13 13 12 12 12 12 11 11 11 11 11
17 17 17 17 17 17 17 17 17 17 17 17 17 17 17 17 17 16 16 16 16 16 15 15 15 15 15 14 14 14 13 13 13 12 12 12 12 11 11 11 11 11 11
17 17 17 16 16 16 16 16 16 16 16 16 16 16 17 16 16 16 16 15 15 15 15 14 14 14 14 13 13 13 13 12 12 12 12 11 11 11 11 11 11 11 11
Wind_Speed
6 5 5 6 5 5 5 4 4 4 3 2 2 1 0 0 1 0 0 1 3 4 4 2 3 3 2 2 3 3 3 2 2 3 2 3 3 2 1 0 1 1 2
6 6 6 6 6 5 5 5 4 4 4 3 2 2 2 1 0 0 1 0 2 3 3 3 2 3 2 2 3 3 2 1 2 2 2 1 2 2 3 2 1 1 1
10 8 7 7 6 6 7 6 5 4 4 3 3 2 2 2 1 1 1 0 1 2 3 3 3 3 3 3 3 3 4 3 1 1 2 2 1 1 2 2 2 2 2
9 9 8 8 8 8 6 6 5 4 4 4 4 4 3 2 2 1 1 1 1 2 3 3 3 3 2 3 3 3 3 4 2 1 1 1 2 2 0 1 2 2 2
11 11 10 10 8 7 7 6 5 4 4 4 5 4 3 2 1 1 1 1 0 1 2 3 3 3 2 3 3 2 3 3 3 2 2 1 1 1 2 1 0 1 1
11 10 8 7 7 6 6 6 5 4 4 5 5 5 5 4 3 2 1 1 0 0 0 2 2 2 2 3 3 3 3 3 3 2 2 2 2 2 2 2 1 1 1
10 10 10 9 8 8 8 7 6 5 5 5 5 5 6 5 5 3 3 2 1 1 1 1 2 2 2 3 3 3 3 3 3 3 2 2 2 2 2 2 1 1 1
9 11 12 11 10 10 9 8 7 6 5 6 5 4 5 4 3 3 3 3 2 2 2 2 2 2 2 2 3 2 3 2 3 3 3 2 2 2 3 3 3 1 1
9 10 10 10 10 10 10 10 9 7 6 6 6 5 4 4 4 3 3 2 2 2 2 2 2 2 2 2 2 2 2 2 2 2 2 2 2 2 2 3 3 3 2
8 8 8 9 9 9 8 8 8 8 7 6 6 5 5 5 5 4 3 3 2 2 2 2 2 2 1 2 2 1 1 2 1 1 2 2 1 2 2 3 2 3 3
7 7 7 8 8 7 7 8 7 6 6 6 6 5 5 5 5 4 3 3 2 3 3 3 2 2 2 2 2 2 1 2 1 0 1 2 2 2 2 2 3 3 3
5 5 5 5 6 7 7 7 8 7 7 6 6 6 5 5 5 4 4 4 3 3 3 3 3 2 2 2 3 2 2 2 1 1 1 1 1 2 2 2 3 3 3
4 4 4 4 5 6 6 7 7 7 6 7 7 6 6 6 5 5 4 4 4 3 3 3 3 3 3 3 3 3 2 2 2 2 2 2 2 2 2 2 2 2 3
4 4 4 4 4 4 5 6 6 6 7 7 7 7 7 7 6 5 4 4 4 4 3 3 3 3 3 3 3 3 3 2 1 1 2 2 3 3 3 3 3 3 3
3 4 4 4 3 3 3 4 5 5 6 7 7 7 6 6 6 5 4 4 4 3 3 3 2 2 2 3 3 3 3 3 2 1 1 2 2 3 3 3 4 4 4
2 3 3 3 3 4 4 4 4 5 5 6 7 6 6 6 6 6 5 4 4 3 3 3 3 3 3 3 4 4 3 3 3 2 1 1 1 2 3 4 5 6 6
1 2 3 4 4 5 5 5 5 4 5 6 6 7 7 7 7 7 6 5 5 4 4 4 4 4 4 4 4 5 4 3 3 3 2 1 1 2 2 3 4 4 6
0 0 1 2 2 3 3 3 3 4 5 5 5 6 7 7 7 6 6 6 5 5 4 5 4 4 4 5 5 5 4 3 3 3 3 3 2 2 3 3 2 2 3
1 1 1 2 2 2 2 3 3 4 4 4 5 5 6 6 6 7 7 6 5 5 4 4 4 4 4 5 5 5 3 3 3 2 2 3 3 3 4 4 3 2 2
1 1 1 2 2 2 3 3 3 3 4 4 4 4 5 6 7 7 6 4 4 5 4 4 4 5 5 5 7 6 3 3 2 2 2 3 4 4 5 4 4 3 3
2 2 2 2 1 2 3 3 2 3 4 3 3 3 4 5 6 5 5 4 4 4 4 4 4 4 4 5 6 7 5 4 4 3 2 2 3 4 4 4 4 4 4
2 2 2 2 1 2 3 2 2 3 2 3 3 3 3 4 4 4 4 4 4 4 4 4 4 3 3 4 6 7 7 5 4 4 3 2 4 5 5 4 4 5 4
1 1 1 1 1 0 2 2 3 1 2 2 3 2 3 3 3 4 5 4 4 4 4 4 4 3 2 3 5 6 6 6 4 3 4 4 4 4 3 4 5 4 3
1 0 1 1 2 2 1 2 2 1 3 3 3 3 3 3 3 3 4 4 5 5 5 4 4 3 2 2 2 3 3 4 3 2 2 3 3 1 1 1 2 3 3
1 1 0 1 2 2 2 3 2 3 3 3 3 3 3 4 4 3 3 4 5 6 6 5 5 4 4 5 6 5 4 4 4 3 2 1 1 1 1 1 1 2 2
2 1 1 2 3 3 3 3 3 4 4 3 3 3 3 3 3 3 2 1 2 3 4 5 5 4 5 5 7 7 6 5 6 4 2 3 3 3 3 3 3 3 3
Wind_Direction
206 190 184 169 159 159 158 164 163 163 146 128 130 123 154 355 17 336 268 180 179 172 161 159 155 150 160 165 149 133 121 112 116 96 59 36 40 53 38 86 142 184 207
193 188 182 174 171 174 176 178 182 176 172 158 146 145 138 134 147 2 25 160 169 171 168 160 163 159 163 158 148 144 133 142 139 132 111 37 12 29 34 40 61 46 78
198 193 187 186 178 184 188 192 192 187 182 163 128 106 85 61 52 23 348 332 176 178 174 168 165 164 170 179 177 171 164 173 181 147 151 154 201 327 15 38 48 51 54
196 193 189 188 192 197 188 183 184 185 178 163 160 163 166 180 205 196 239 311 182 172 174 174 173 174 176 185 197 183 175 166 178 163 142 161 158 164 13 10 32 43 38
195 195 194 194 195 192 183 179 174 185 180 170 172 169 175 184 173 149 192 297 308 186 182 178 176 179 187 194 195 181 174 173 176 174 163 138 113 157 178 235 331 30 17
193 193 188 181 186 185 181 174 174 192 184 177 177 177 181 180 173 184 205 240 260 285 175 166 171 181 186 194 194 182 179 185 183 182 177 174 174 183 182 207 240 298 336
187 185 182 184 187 186 187 180 179 196 192 185 189 188 188 183 189 198 203 201 202 226 223 175 172 183 190 187 179 174 184 188 190 197 203 201 204 180 172 172 199 233 273
186 189 191 191 192 194 192 186 187 197 193 191 195 186 182 185 195 198 196 197 205 211 198 174 168 170 172 179 174 172 188 185 197 208 202 206 214 188 177 179 175 189 239
189 192 192 190 192 194 193 190 189 196 194 194 187 179 177 183 190 190 183 184 195 190 169 155 146 153 166 175 163 166 182 173 191 205 207 218 226 202 197 182 179 176 208
187 193 194 192 192 193 191 187 189 197 195 191 194 189 178 185 187 180 181 184 187 171 151 145 144 140 130 138 145 161 173 162 190 195 197 219 224 199 187 183 182 184 189
187 192 195 190 183 178 179 185 190 190 188 189 188 180 177 176 173 177 188 186 180 172 166 169 164 154 146 141 139 149 143 148 152 170 190 218 187 180 186 181 180 177 169
172 175 175 169 175 181 184 187 193 193 192 185 182 184 177 170 174 182 188 180 177 177 175 172 168 174 164 156 157 167 162 167 193 229 202 229 183 169 182 180 184 181 175
145 143 142 163 182 184 184 189 193 198 194 182 181 181 181 179 186 189 185 178 178 174 168 166 172 178 173 169 173 173 175 191 217 227 218 232 186 189 188 181 181 178 164
153 153 160 177 183 182 185 192 196 193 187 181 179 187 193 192 190 186 181 180 180 176 176 177 182 186 185 183 181 173 175 189 213 221 216 219 204 206 194 182 181 170 159
153 168 176 182 181 185 189 196 198 192 184 181 188 199 197 191 181 180 182 181 184 188 182 177 190 200 197 200 191 186 183 182 184 205 230 222 197 193 195 186 181 172 170
182 176 171 172 183 196 198 195 203 200 184 187 198 196 191 190 185 188 185 180 184 188 185 195 199 209 222 207 193 183 183 186 191 209 235 229 208 193 190 185 180 176 176
170 173 188 191 198 206 198 197 201 184 182 196 195 191 190 193 194 192 183 190 197 196 203 212 202 214 225 207 198 192 190 199 208 210 219 232 236 205 195 188 182 190 189
152 201 200 206 215 210 203 187 168 167 178 192 198 195 192 194 191 186 191 197 197 197 209 216 212 214 227 208 201 195 196 207 218 215 207 206 226 216 184 178 180 199 205
197 204 212 199 173 179 169 145 160 162 174 199 205 203 197 195 192 194 200 201 196 203 207 206 205 214 228 210 199 187 193 207 227 231 218 206 210 207 178 168 178 199 241
27 56 90 102 109 131 135 132 153 167 196 211 212 208 199 199 203 204 201 198 194 202 195 204 207 213 223 214 201 188 191 202 222 237 235 215 204 198 183 178 179 200 235
11 37 65 83 102 124 126 138 156 204 219 206 194 192 195 203 207 203 197 188 182 185 198 211 224 224 222 214 203 193 197 203 212 222 231 233 205 198 193 190 200 213 212
24 32 52 41 49 127 141 163 211 226 193 180 186 194 202 205 204 191 191 183 180 188 209 219 235 239 228 215 211 203 203 198 197 211 213 212 204 202 200 199 204 199 184
12 23 69 18 343 192 154 204 243 205 170 179 199 205 208 202 191 191 190 184 188 198 214 217 228 243 234 224 215 205 201 194 197 212 205 205 202 199 202 204 201 191 183
333 14 71 29 317 298 232 231 235 192 189 200 218 220 199 195 197 206 193 190 197 206 213 219 225 228 219 221 212 205 201 195 203 212 198 194 196 180 189 202 201 198 197
319 331 233 249 275 288 282 254 223 194 202 211 211 207 198 194 200 207 203 203 212 210 208 218 208 202 218 225 204 191 193 192 192 164 141 144 172 198 220 224 224 223 208
295 288 281 273 273 273 276 265 228 202 199 212 216 215 212 205 200 199 209 214 207 198 200 202 197 212 215 195 186 188 188 177 160 148 173 199 212 221 227 230 236 233 230
Height
1530 1532 1533 1534 1536 1537 1537 1538 1539 1540 1541 1542 1543 1544 1545 1546 1547 1547 1548 1549 1550 1551 1552 1552 1553 1554 1554 1555 1556 1556 1557 1557 1558 1558 1559 1559 1560 1560 1560 1561 1561 1562 1562
1528 1530 1532 1533 1534 1536 1537 1538 1539 1540 1541 1542 1543 1544 1545 1545 1546 1547 1548 1549 1550 1551 1551 1552 1553 1553 1554 1555 1555 1556 1556 1557 1557 1558 1558 1558 1560 1559 1559 1559 1560 1560 1561
1525 1527 1530 1531 1533 1535 1536 1537 1538 1539 1540 1541 1542 1543 1544 1545 1546 1547 1548 1549 1549 1550 1551 1552 1552 1553 1553 1554 1554 1555 1555 1556 1556 1557 1558 1558 1558 1558 1558 1558 1559 1559 1559
1523 1525 1527 1530 1532 1533 1535 1536 1537 1538 1539 1540 1541 1542 1543 1544 1545 1546 1547 1548 1549 1550 1550 1551 1551 1552 1552 1553 1553 1553 1554 1554 1555 1556 1556 1557 1557 1558 1557 1558 1558 1558 1557
1519 1522 1525 1527 1530 1532 1534 1535 1536 1537 1539 1540 1541 1542 1543 1544 1545 1546 1547 1548 1549 1549 1550 1550 1550 1551 1551 1551 1552 1552 1552 1553 1554 1554 1554 1555 1555 1556 1556 1556 1556 1556 1556
1516 1519 1523 1526 1528 1530 1532 1534 1535 1536 1538 1539 1540 1541 1542 1543 1544 1545 1546 1547 1548 1548 1549 1549 1549 1550 1550 1550 1550 1550 1551 1551 1552 1552 1552 1553 1553 1554 1554 1554 1554 1554 1555
1513 1516 1519 1522 1525 1528 1530 1532 1533 1535 1536 1538 1539 1540 1541 1542 1543 1544 1545 1546 1547 1547 1548 1548 1548 1548 1548 1548 1548 1549 1549 1550 1550 1550 1551 1551 1552 1552 1552 1552 1552 1553 1553
1510 1512 1515 1519 1522 1525 1527 1529 1531 1533 1535 1536 1537 1539 1540 1541 1542 1543 1544 1545 1546 1546 1547 1547 1547 1547 1546 1546 1546 1547 1547 1548 1548 1548 1549 1549 1550 1550 1550 1550 1551 1551 1551
1507 1510 1513 1516 1519 1522 1525 1527 1529 1531 1533 1535 1536 1538 1539 1540 1541 1542 1543 1544 1544 1545 1545 1545 1545 1545 1545 1545 1545 1545 1545 1546 1546 1547 1547 1547 1548 1548 1548 1548 1549 1550 1549
1505 1508 1511 1514 1517 1520 1523 1525 1528 1530 1531 1533 1535 1536 1537 1539 1540 1541 1542 1543 1543 1544 1544 1544 1544 1544 1544 1544 1544 1544 1544 1544 1545 1545 1545 1545 1545 1546 1546 1546 1546 1547 1548
1502 1505 1508 1511 1515 1518 1521 1523 1525 1528 1530 1532 1534 1535 1536 1538 1539 1540 1540 1541 1542 1543 1543 1543 1543 1543 1543 1543 1543 1543 1543 1543 1543 1543 1543 1543 1543 1543 1543 1543 1543 1544 1544
1501 1504 1507 1510 1513 1515 1518 1520 1523 1525 1527 1530 1532 1533 1535 1536 1537 1538 1539 1540 1541 1541 1542 1542 1542 1542 1542 1541 1541 1541 1541 1541 1541 1541 1541 1541 1541 1541 1541 1541 1541 1541 1542
1501 1503 1506 1509 1511 1513 1516 1518 1520 1522 1524 1527 1529 1531 1532 1534 1535 1536 1537 1538 1539 1539 1540 1540 1540 1540 1540 1540 1540 1539 1539 1540 1540 1539 1539 1538 1538 1538 1538 1538 1538 1539 1539
1499 1502 1505 1507 1509 1511 1513 1516 1518 1520 1523 1525 1526 1528 1530 1531 1532 1534 1535 1536 1536 1537 1538 1538 1538 1538 1538 1538 1538 1537 1537 1537 1537 1537 1537 1536 1536 1536 1536 1536 1536 1536 1537
1498 1501 1503 1506 1508 1509 1511 1514 1515 1518 1520 1522 1523 1524 1526 1529 1530 1531 1532 1533 1534 1535 1535 1536 1536 1536 1536 1536 1536 1535 1535 1535 1535 1534 1534 1534 1534 1533 1534 1533 1533 1534 1534
1497 1499 1501 1504 1506 1508 1509 1511 1513 1515 1517 1518 1520 1522 1524 1525 1526 1527 1528 1530 1531 1532 1532 1533 1533 1533 1533 1533 1533 1533 1533 1533 1532 1532 1532 1531 1531 1531 1531 1531 1531 1532 1532
1496 1498 1499 1501 1503 1505 1507 1508 1510 1511 1513 1515 1516 1518 1520 1521 1523 1524 1525 1526 1528 1528 1529 1530 1530 1530 1530 1530 1530 1530 1530 1530 1530 1529 1529 1529 1529 1529 1529 1529 1529 1529 1530
1495 1496 1498 1499 1501 1503 1504 1506 1507 1508 1510 1511 1512 1514 1516 1517 1519 1520 1521 1523 1524 1525 1526 1526 1526 1526 1527 1527 1527 1527 1527 1527 1527 1526 1526 1526 1526 1526 1526 1526 1526 1526 1527
1493 1495 1496 1497 1498 1500 1502 1503 1504 1505 1507 1509 1510 1511 1512 1513 1515 1516 1517 1519 1520 1521 1522 1522 1522 1523 1523 1523 1524 1524 1524 1523 1523 1523 1522 1522 1523 1523 1522 1522 1522 1523 1524
1493 1494 1495 1495 1496 1497 1499 1500 1501 1502 1504 1505 1506 1508 1509 1510 1512 1513 1514 1515 1516 1517 1518 1518 1518 1518 1518 1519 1520 1520 1520 1519 1519 1520 1519 1519 1519 1519 1519 1519 1519 1520 1521
1492 1492 1492 1493 1494 1495 1496 1498 1498 1499 1501 1502 1503 1504 1505 1507 1508 1510 1511 1511 1512 1513 1514 1514 1514 1514 1514 1515 1516 1516 1516 1515 1515 1516 1516 1516 1516 1515 1516 1516 1517 1517 1518
1490 1491 1490 1490 1492 1493 1494 1494 1495 1496 1498 1499 1499 1500 1501 1503 1505 1506 1506 1507 1508 1508 1509 1509 1509 1509 1509 1510 1511 1512 1512 1512 1512 1512 1512 1512 1513 1512 1513 1513 1514 1515 1515
1489 1489 1489 1488 1489 1490 1490 1491 1492 1493 1495 1495 1496 1496 1498 1499 1501 1502 1501 1502 1503 1504 1504 1504 1504 1504 1505 1506 1507 1507 1507 1508 1508 1509 1509 1510 1510 1510 1510 1510 1511 1512 1512
1487 1488 1487 1487 1487 1487 1487 1489 1489 1490 1492 1492 1492 1493 1494 1495 1496 1498 1497 1498 1499 1499 1499 1499 1499 1500 1501 1502 1502 1503 1503 1504 1505 1505 1506 1506 1507 1507 1507 1507 1508 1508 1509
1486 1486 1485 1484 1484 1485 1484 1486 1486 1488 1489 1489 1489 1489 1490 1491 1492 1493 1493 1493 1494 1495 1495 1495 1495 1495 1496 1498 1499 1499 1500 1500 1501 1502 1502 1502 1503 1503 1503 1504 1504 1505 1505
1484 1483 1483 1482 1482 1482 1482 1483 1483 1484 1484 1484 1485 1486 1486 1487 1487 1488 1489 1489 1490 1491 1491 1492 1492 1493 1494 1495 1495 1496 1497 1498 1498 1498 1498 1499 1499 1500 1500 1500 1500 1501 1501